This demonstration page uses our WeatherBlox Daily Observations layout. Learn more.

Left ArrowRight Arrow

38.83388, -104.82136

Hourly Observations for January 13, 2022

Temp ( °F °C ) Dew Point ( °F °C ) Humidity (%) Winds ( mph kmh ) Pressure ( in mb ) Visibility ( mi km ) Precip ( " mm )
12:54 am 00:54 Mostly Cloudy 48 8.9 18 -7.8 30 30 NNW 16 26 30.19 1022 10 16 0.00 0.00
1:54 am 01:54 Partly Cloudy 48 8.9 18 -7.8 30 30 NNW 14 22 30.18 1022 10 16 0.00 0.00
2:54 am 02:54 Partly Cloudy 45 7.2 18 -7.8 34 34 NNW 14 22 30.20 1023 10 16 0.00 0.00
3:54 am 03:54 Mostly Cloudy 42 5.6 18 -7.8 38 38 WSW 9 15 30.23 1024 10 16 0.00 0.00
4:54 am 04:54 Mostly Cloudy 44 6.7 17 -8.3 34 34 Calm 30.24 1024 10 16 0.00 0.00
5:54 am 05:54 Mostly Cloudy 43 6.1 16 -8.9 34 34 N 7 11 30.25 1024 10 16 0.00 0.00
6:54 am 06:54 Partly Cloudy 40 4.4 15 -9.4 36 36 N 7 11 30.29 1026 10 16 0.00 0.00
7:54 am 07:54 Partly Cloudy 42 5.6 15 -9.4 33 33 NNW 7 11 30.34 1028 10 16 0.00 0.00
8:54 am 08:54 Partly Cloudy 50 10 18 -7.8 28 28 Calm 30.29 1026 10 16 0.00 0.00
9:54 am 09:54 Partly Cloudy 56 13.3 17 -8.3 22 22 Calm 30.25 1024 10 16 0.00 0.00
10:54 am 10:54 Partly Cloudy 57 13.9 18 -7.8 22 22 SSE 6 9 30.22 1023 10 16 0.00 0.00
11:54 am 11:54 Mostly Cloudy 58 14.4 18 -7.8 21 21 SE 7 11 30.14 1021 10 16 0.00 0.00
12:54 pm 12:54 Mostly Cloudy 59 15 18 -7.8 20 20 SE 10 17 30.09 1019 10 16 0.00 0.00
1:54 pm 13:54 Mostly Cloudy 58 14.4 16 -8.9 19 19 SE 12 19 30.08 1019 10 16 0.00 0.00
2:54 pm 14:54 Mostly Cloudy 58 14.4 16 -8.9 19 19 SSE 8 13 30.06 1018 10 16 0.00 0.00
3:54 pm 15:54 Mostly Cloudy 55 12.8 18 -7.8 23 23 SSE 13 20 30.07 1018 10 16 0.00 0.00
4:54 pm 16:54 Mostly Cloudy 50 10 17 -8.3 27 27 SE 8 13 30.06 1018 10 16 0.00 0.00
5:54 pm 17:54 Mostly Cloudy 48 8.9 19 -7.2 32 32 SE 9 15 30.06 1018 10 16 0.00 0.00
6:54 pm 18:54 Cloudy 48 8.9 19 -7.2 32 32 SE 5 7 30.06 1018 10 16 0.00 0.00
7:54 pm 19:54 Mostly Cloudy 45 7.2 19 -7.2 35 35 Calm 30.04 1017 10 16 0.00 0.00
8:54 pm 20:54 Mostly Cloudy 45 7.2 19 -7.2 35 35 Calm 29.98 1015 10 16 0.00 0.00
9:54 pm 21:54 Mostly Cloudy 38 3.3 20 -6.7 48 48 N 7 11 29.95 1014 10 16 0.00 0.00
10:54 pm 22:54 Mostly Cloudy 39 3.9 21 -6.1 48 48 NNE 10 17 29.90 1013 10 16 0.00 0.00
11:54 pm 23:54 Mostly Cloudy 38 3.3 20 -6.7 48 48 NNE 13 20 29.87 1011 10 16 0.00 0.00

Powered by AerisWeather